Location: Ballingbuur
(53.0000°N, 5.7667°E)
Time: 19:47:08
(UTC+00:00)

NOSS 3-4 (C) - Pass Details

Date: 29 November 2020
Orbit: 878 x 1334 km, 63.4° (Epoch: 22 January)

Event Time Altitude Azimuth Distance (km) Brightness Sun altitude
Exits shadow 05:48:28 12° 253° (WSW) 2,421 5.1 -13.7°
Maximum altitude 05:53:52 54° 329° (NNW) 1,148 3.6 -12.9°
Drops below altitude 10° 06:00:20 10° 47° (NE) 2,838 6.3 -12.0°
Sets 06:03:11 0° 52° (NE) 3,864 7.1 -11.6°
